User: anonymous
Location: NJAA Observatory
(40.6819°N, 74.8979°W)
Time: 14:16:17
(UTC-04:00)
Language:

Landsat 5 - Orbit

View from above orbital plane
View from above orbital plane
View from above satellite
View from above satellite

Ground track
Ground track

The orbit data is extracted from the following two-line orbital elements,

1 14780U 84021A   14205.16941266  .00000239  00000-0  29860-4 0  3696
2 14780 098.0538 283.1261 0096623 052.3229 001.9918 14.88748561618125
Epoch (UTC): 24 July 2014 04:03:57
Eccentricity: 0.0096623
inclination: 98.0538°
perigee height: 534 km
apogee height: 669 km
right ascension of ascending node: 283.1261°
argument of perigee: 52.3229°
revolutions per day: 14.88748561
mean anomaly at epoch: 1.9918°
orbit number at epoch: 61812

The dashed part of the orbit path shows where the satellite is in the earth's shadow,  

DLR